Weather History for Columbia Airport, CA

Change the Weather History Date:

Friday, October 18, 2013

  Actual Average (KMOD) Record (KMOD)
Temperature  
Mean Temperature 60 °F -  
Max Temperature 78 °F 78 °F 92 °F (1988)
Min Temperature 41 °F 52 °F 38 °F (1938)
Degree Days  
Heating Degree Days 6 2  
Month to date heating degree days 17  
Since 1 July heating degree days 20  
Cooling Degree Days 0 2  
Month to date cooling degree days 71  
Year to date cooling degree days 1683  
Growing Degree Days 10 (Base 50)    
Moisture  
Dew Point 31 °F    
Average Humidity 42    
Maximum Humidity 70    
Minimum Humidity 17    
Precipitation  
Precipitation 0.00 in 0.02 in 0.33 in (1953)
Month to date precipitation 0.31  
Year to date precipitation 9.34  
Since 1 July precipitation 0.59  
Snow  
Snow 0.00 in - 0.00 in (2002)
Month to date snowfall  
Since 1 July snowfall  
Since 1 September snowfall  
Snow Depth -    
Sea Level Pressure  
Sea Level Pressure 30.06 in    
Wind  
Wind Speed 1 mph (SSW)    
Max Wind Speed 7 mph    
Max Gust Speed -    
Visibility 10 miles    
Events      
T = Trace of Precipitation, MM = Missing Value Source: NWS Daily Summary

Daily Weather History Graph

Daily Weather History Graph

Search for Another Location

Airport:

Trip Planner

Search our weather history database for the weather conditions in past years. The results will help you decide how hot, cold, wet, or windy it might be!

Date:

Astronomy

Oct. 18, 2013 Rise Set
Actual Time 7:13 AM PDT 6:19 PM PDT
Civil Twilight 6:46 AM PDT 6:45 PM PDT
Nautical Twilight 6:16 AM PDT 7:16 PM PDT
Astronomical Twilight 5:45 AM PDT 7:47 PM PDT
Moon 6:12 PM PDT (10/18) 6:54 AM PDT (10/18)
Length of Visible Light 11h 59m
Length of Day
11h 05m
Full, 100% of the Moon is Illuminated
Oct 18
Full
Oct 18
Full
Oct 26
Last Quarter
Nov 3
New
Nov 9
First Quarter

Hourly Weather History & Observations

Time (PDT) Temp. Dew Point Humidity Pressure Visibility Wind Dir Wind Speed Gust Speed Precip Events Conditions
12:15 AM 44.6 °F 30.2 °F 57% 30.02 in 10.0 mi Calm Calm - N/A   Clear
12:35 AM 46.4 °F 30.2 °F 53% 30.02 in 10.0 mi Calm Calm - N/A   Clear
12:55 AM 44.6 °F 32.0 °F 61% 30.02 in 10.0 mi Calm Calm - N/A   Clear
1:15 AM 44.6 °F 32.0 °F 61% 30.03 in 10.0 mi Calm Calm - N/A   Clear
1:35 AM 44.6 °F 32.0 °F 61% 30.03 in 10.0 mi Calm Calm - N/A   Clear
1:55 AM 44.6 °F 32.0 °F 61% 30.03 in 10.0 mi Calm Calm - N/A   Clear
2:15 AM 44.6 °F 32.0 °F 61% 30.03 in 10.0 mi Calm Calm - N/A   Clear
2:35 AM 44.6 °F 32.0 °F 61% 30.04 in 10.0 mi Calm Calm - N/A   Clear
2:55 AM 44.6 °F 32.0 °F 61% 30.04 in 10.0 mi Calm Calm - N/A   Clear
3:15 AM 44.6 °F 32.0 °F 61% 30.03 in 10.0 mi Calm Calm - N/A   Clear
3:35 AM 44.6 °F 32.0 °F 61% 30.03 in 10.0 mi Calm Calm - N/A   Clear
3:55 AM 44.6 °F 32.0 °F 61% 30.03 in 10.0 mi Calm Calm - N/A   Clear
4:15 AM 42.8 °F 32.0 °F 66% 30.03 in 10.0 mi Calm Calm - N/A   Clear
4:35 AM 41.0 °F 32.0 °F 70% 30.04 in 10.0 mi Calm Calm - N/A   Clear
4:55 AM 42.8 °F 32.0 °F 66% 30.04 in 10.0 mi Calm Calm - N/A   Clear
5:15 AM 42.8 °F 32.0 °F 66% 30.04 in 10.0 mi Calm Calm - N/A   Clear
5:35 AM 41.0 °F 32.0 °F 70% 30.04 in 10.0 mi Calm Calm - N/A   Clear
5:55 AM 41.0 °F 32.0 °F 70% 30.04 in 10.0 mi Calm Calm - N/A   Clear
6:15 AM 41.0 °F 32.0 °F 70% 30.05 in 10.0 mi Calm Calm - N/A   Clear
6:35 AM 41.0 °F 32.0 °F 70% 30.05 in 10.0 mi Calm Calm - N/A   Clear
6:55 AM 41.0 °F 32.0 °F 70% 30.05 in 10.0 mi Calm Calm - N/A   Clear
7:15 AM 41.0 °F 32.0 °F 70% 30.06 in 10.0 mi Calm Calm - N/A   Clear
7:35 AM 42.8 °F 32.0 °F 66% 30.06 in 10.0 mi Calm Calm - N/A   Clear
7:55 AM 44.6 °F 32.0 °F 61% 30.07 in 10.0 mi Calm Calm - N/A   Clear
8:15 AM 46.4 °F 32.0 °F 57% 30.08 in 10.0 mi Calm Calm - N/A   Clear
8:35 AM 50.0 °F 32.0 °F 50% 30.08 in 10.0 mi Calm Calm - N/A   Clear
8:55 AM 55.4 °F 33.8 °F 44% 30.09 in 10.0 mi Calm Calm - N/A   Clear
9:15 AM 62.6 °F 32.0 °F 32% 30.09 in 10.0 mi Calm Calm - N/A   Clear
9:35 AM 66.2 °F 32.0 °F 28% 30.09 in 10.0 mi South 4.6 mph - N/A   Clear
9:55 AM 69.8 °F 28.4 °F 21% 30.09 in 10.0 mi SSE 6.9 mph - N/A   Clear
10:15 AM 71.6 °F 28.4 °F 20% 30.10 in 10.0 mi SSE 5.8 mph - N/A   Clear
10:35 AM 71.6 °F 28.4 °F 20% 30.09 in 10.0 mi South 4.6 mph - N/A   Clear
10:55 AM 71.6 °F 30.2 °F 22% 30.09 in 10.0 mi South 5.8 mph - N/A   Clear
11:15 AM 73.4 °F 28.4 °F 19% 30.09 in 10.0 mi SSW 5.8 mph - N/A   Clear
11:35 AM 73.4 °F 30.2 °F 20% 30.09 in 10.0 mi SSW 4.6 mph - N/A   Clear
11:55 AM 75.2 °F 30.2 °F 19% 30.09 in 10.0 mi SW 5.8 mph - N/A   Clear
12:15 PM 75.2 °F 30.2 °F 19% 30.09 in 10.0 mi SSW 5.8 mph - N/A   Clear
12:35 PM 75.2 °F 32.0 °F 21% 30.08 in 10.0 mi SSW 3.5 mph - N/A   Clear
12:55 PM 77.0 °F 32.0 °F 19% 30.08 in 10.0 mi SW 3.5 mph - N/A   Clear
1:15 PM 77.0 °F 32.0 °F 19% 30.07 in 10.0 mi WSW 4.6 mph - N/A   Clear
1:35 PM 77.0 °F 30.2 °F 18% 30.07 in 10.0 mi SSE 3.5 mph - N/A   Clear
1:55 PM 78.8 °F 32.0 °F 18% 30.06 in 10.0 mi SSE 3.5 mph - N/A   Clear
2:15 PM 78.8 °F 32.0 °F 18% 30.06 in 10.0 mi Calm Calm - N/A   Clear
2:35 PM 78.8 °F 30.2 °F 17% 30.06 in 10.0 mi SSW 4.6 mph - N/A   Clear
2:55 PM 78.8 °F 30.2 °F 17% 30.05 in 10.0 mi WSW 6.9 mph - N/A   Clear
3:15 PM 78.8 °F 30.2 °F 17% 30.05 in 10.0 mi SW 5.8 mph - N/A   Clear
3:35 PM 77.0 °F 30.2 °F 18% 30.05 in 10.0 mi South 3.5 mph - N/A   Clear
3:55 PM 77.0 °F 28.4 °F 17% 30.05 in 10.0 mi SSW 3.5 mph - N/A   Clear
4:15 PM 77.0 °F 30.2 °F 18% 30.05 in 10.0 mi Calm Calm - N/A   Clear
4:35 PM 77.0 °F 28.4 °F 17% 30.05 in 10.0 mi SW 6.9 mph - N/A   Clear
4:55 PM 77.0 °F 28.4 °F 17% 30.05 in 10.0 mi West 5.8 mph - N/A   Clear
5:15 PM 75.2 °F 28.4 °F 18% 30.05 in 10.0 mi SW 4.6 mph - N/A   Clear
5:35 PM 75.2 °F 28.4 °F 18% 30.05 in 10.0 mi Calm Calm - N/A   Clear
5:55 PM 71.6 °F 28.4 °F 20% 30.06 in 10.0 mi Calm Calm - N/A   Clear
6:15 PM 66.2 °F 30.2 °F 26% 30.06 in 10.0 mi Calm Calm - N/A   Clear
6:35 PM 62.6 °F 32.0 °F 32% 30.06 in 10.0 mi Calm Calm - N/A   Clear
6:55 PM 59.0 °F 32.0 °F 36% 30.06 in 10.0 mi Calm Calm - N/A   Clear
7:15 PM 57.2 °F 32.0 °F 38% 30.07 in 10.0 mi Calm Calm - N/A   Clear
7:35 PM 55.4 °F 32.0 °F 41% 30.07 in 10.0 mi Calm Calm - N/A   Clear
7:55 PM 55.4 °F 32.0 °F 41% 30.07 in 10.0 mi Calm Calm - N/A   Clear
8:15 PM 53.6 °F 32.0 °F 44% 30.07 in 10.0 mi Calm Calm - N/A   Clear
8:35 PM 53.6 °F 32.0 °F 44% 30.07 in 10.0 mi Calm Calm - N/A   Clear
8:55 PM 51.8 °F 32.0 °F 47% 30.07 in 10.0 mi Calm Calm - N/A   Clear
9:15 PM 50.0 °F 32.0 °F 50% 30.07 in 10.0 mi Calm Calm - N/A   Clear
9:35 PM 50.0 °F 32.0 °F 50% 30.08 in 10.0 mi Calm Calm - N/A   Clear
9:55 PM 50.0 °F 32.0 °F 50% 30.08 in 10.0 mi Calm Calm - N/A   Clear
10:15 PM 50.0 °F 32.0 °F 50% 30.08 in 10.0 mi Calm Calm - N/A   Clear
10:35 PM 50.0 °F 32.0 °F 50% 30.08 in 10.0 mi Calm Calm - N/A   Clear
10:55 PM 48.2 °F 32.0 °F 54% 30.09 in 10.0 mi Calm Calm - N/A   Clear
11:15 PM 48.2 °F 32.0 °F 54% 30.08 in 10.0 mi Calm Calm - N/A   Clear
11:35 PM 48.2 °F 32.0 °F 54% 30.08 in 10.0 mi Calm Calm - N/A   Clear
11:55 PM 48.2 °F 32.0 °F 54% 30.09 in 10.0 mi Calm Calm - N/A   Clear